Powrót do katalogu

STARLINK-6305

AktywnyŁącznośćVLEO
NORAD 56394·PAYLOAD·🇺🇸 United States

Wystrzelony May 4, 2023 z Cape Canaveral Space Force Station

Loading…

Następne Przeloty (najbliższe 24 godziny)

TLE

ŚwieżeSource: CelesTrak SupGP

Epoka: Sep 14, 2026, 20:34 UTC

1 56394C 23061W   26257.85743056  .00007241  00000+0  26231-3 0  2576
2 56394  43.0023 198.3918 0001277 267.4979 293.2606 15.27570115    14

Śledź STARLINK-6305 w czasie rzeczywistym z AllMySat

Download on the App Store